Year,Month,Day,Hour,Minute,Value (Times are PST for temperature in C)
2012,05,26,00,00,12.50
2012,05,26,00,01,12.40
2012,05,26,00,02,12.40
2012,05,26,00,03,12.40
2012,05,26,00,04,12.40
2012,05,26,00,05,12.30
2012,05,26,00,06,12.30
2012,05,26,00,07,12.30
2012,05,26,00,08,12.30
2012,05,26,00,09,12.30
2012,05,26,00,10,12.30
2012,05,26,00,11,12.20
2012,05,26,00,12,12.20
2012,05,26,00,13,12.20
2012,05,26,00,14,12.20
2012,05,26,00,15,12.10
2012,05,26,00,16,12.10
2012,05,26,00,17,12.00
2012,05,26,00,18,11.90
2012,05,26,00,19,11.90
2012,05,26,00,20,11.80
2012,05,26,00,21,11.70
2012,05,26,00,22,11.70
2012,05,26,00,23,11.70
2012,05,26,00,24,11.60
2012,05,26,00,25,11.60
2012,05,26,00,26,11.60
2012,05,26,00,27,11.60
2012,05,26,00,28,11.50
2012,05,26,00,29,11.50
2012,05,26,00,30,11.50
2012,05,26,00,31,11.50
2012,05,26,00,32,11.50
2012,05,26,00,33,11.50
2012,05,26,00,34,11.50
2012,05,26,00,35,11.50
2012,05,26,00,36,11.50
2012,05,26,00,37,11.40
2012,05,26,00,38,11.40
2012,05,26,00,39,11.40
2012,05,26,00,40,11.40
2012,05,26,00,41,11.40
2012,05,26,00,42,11.30
2012,05,26,00,43,11.30
2012,05,26,00,44,11.30
2012,05,26,00,45,11.30
2012,05,26,00,46,11.30
2012,05,26,00,47,11.30
2012,05,26,00,48,11.40
2012,05,26,00,49,11.40
2012,05,26,00,50,11.40
2012,05,26,00,51,11.40
2012,05,26,00,52,11.40
2012,05,26,00,53,11.40
2012,05,26,00,54,11.40
2012,05,26,00,55,11.40
2012,05,26,00,56,11.40
2012,05,26,00,57,11.40
2012,05,26,00,58,11.30
2012,05,26,00,59,11.30
2012,05,26,01,00,11.30
2012,05,26,01,01,11.30
2012,05,26,01,02,11.20
2012,05,26,01,03,11.20
2012,05,26,01,04,11.10
2012,05,26,01,05,11.10
2012,05,26,01,06,11.00
2012,05,26,01,07,10.90
2012,05,26,01,08,10.80
2012,05,26,01,09,10.80
2012,05,26,01,10,10.80
2012,05,26,01,11,10.70
2012,05,26,01,12,10.70
2012,05,26,01,13,10.60
2012,05,26,01,14,10.60
2012,05,26,01,15,10.60
2012,05,26,01,16,10.50
2012,05,26,01,17,10.50
2012,05,26,01,18,10.40
2012,05,26,01,19,10.40
2012,05,26,01,20,10.40
2012,05,26,01,21,10.40
2012,05,26,01,22,10.30
2012,05,26,01,23,10.30
2012,05,26,01,24,10.30
2012,05,26,01,25,10.40
2012,05,26,01,26,10.40
2012,05,26,01,27,10.40
2012,05,26,01,28,10.50
2012,05,26,01,29,10.50
2012,05,26,01,30,10.60
2012,05,26,01,31,10.60
2012,05,26,01,32,10.50
2012,05,26,01,33,10.50
2012,05,26,01,34,10.50
2012,05,26,01,35,10.50
2012,05,26,01,36,10.50
2012,05,26,01,37,10.50
2012,05,26,01,38,10.50
2012,05,26,01,39,10.40
2012,05,26,01,40,10.40
2012,05,26,01,41,10.40
2012,05,26,01,42,10.40
2012,05,26,01,43,10.40
2012,05,26,01,44,10.40
2012,05,26,01,45,10.30
2012,05,26,01,46,10.30
2012,05,26,01,47,10.30
2012,05,26,01,48,10.30
2012,05,26,01,49,10.30
2012,05,26,01,50,10.30
2012,05,26,01,51,10.30
2012,05,26,01,52,10.40
2012,05,26,01,53,10.40
2012,05,26,01,54,10.40
2012,05,26,01,55,10.50
2012,05,26,01,56,10.50
2012,05,26,01,57,10.50
2012,05,26,01,58,10.60
2012,05,26,01,59,10.70
2012,05,26,02,00,10.70
2012,05,26,02,01,10.80
2012,05,26,02,02,10.80
2012,05,26,02,03,10.80
2012,05,26,02,04,10.80
2012,05,26,02,05,10.80
2012,05,26,02,06,10.80
2012,05,26,02,07,10.70
2012,05,26,02,08,10.70
2012,05,26,02,09,10.70
2012,05,26,02,10,10.70
2012,05,26,02,11,10.70
2012,05,26,02,12,10.70
2012,05,26,02,13,10.70
2012,05,26,02,14,10.70
2012,05,26,02,15,10.70
2012,05,26,02,16,10.60
2012,05,26,02,17,10.70
2012,05,26,02,18,10.70
2012,05,26,02,19,10.70
2012,05,26,02,20,10.70
2012,05,26,02,21,10.60
2012,05,26,02,22,10.70
2012,05,26,02,23,10.70
2012,05,26,02,24,10.70
2012,05,26,02,25,10.70
2012,05,26,02,26,10.70
2012,05,26,02,27,10.60
2012,05,26,02,28,10.60
2012,05,26,02,29,10.60
2012,05,26,02,30,10.60
2012,05,26,02,31,10.50
2012,05,26,02,32,10.50
2012,05,26,02,33,10.40
2012,05,26,02,34,10.40
2012,05,26,02,35,10.40
2012,05,26,02,36,10.40
2012,05,26,02,37,10.40
2012,05,26,02,38,10.40
2012,05,26,02,39,10.40
2012,05,26,02,40,10.40
2012,05,26,02,41,10.40
2012,05,26,02,42,10.30
2012,05,26,02,43,10.30
2012,05,26,02,44,10.30
2012,05,26,02,45,10.30
2012,05,26,02,46,10.30
2012,05,26,02,47,10.30
2012,05,26,02,48,10.30
2012,05,26,02,49,10.20
2012,05,26,02,50,10.20
2012,05,26,02,51,10.20
2012,05,26,02,52,10.20
2012,05,26,02,53,10.20
2012,05,26,02,54,10.10
2012,05,26,02,55,10.10
2012,05,26,02,56,10.10
2012,05,26,02,57,10.00
2012,05,26,02,58,10.00
2012,05,26,02,59,9.90
2012,05,26,03,00,9.90
2012,05,26,03,01,9.80
2012,05,26,03,02,9.80
2012,05,26,03,03,9.80
2012,05,26,03,04,9.70
2012,05,26,03,05,9.70
2012,05,26,03,06,9.60
2012,05,26,03,07,9.60
2012,05,26,03,08,9.60
2012,05,26,03,09,9.60
2012,05,26,03,10,9.50
2012,05,26,03,11,9.40
2012,05,26,03,12,9.40
2012,05,26,03,13,9.30
2012,05,26,03,14,9.30
2012,05,26,03,15,9.20
2012,05,26,03,16,9.20
2012,05,26,03,17,9.10
2012,05,26,03,18,9.10
2012,05,26,03,19,9.10
2012,05,26,03,20,9.10
2012,05,26,03,21,9.10
2012,05,26,03,22,9.10
2012,05,26,03,23,9.10
2012,05,26,03,24,9.10
2012,05,26,03,25,9.00
2012,05,26,03,26,9.00
2012,05,26,03,27,9.00
2012,05,26,03,28,8.90
2012,05,26,03,29,8.90
2012,05,26,03,30,8.90
2012,05,26,03,31,8.80
2012,05,26,03,32,8.80
2012,05,26,03,33,8.80
2012,05,26,03,34,8.80
2012,05,26,03,35,8.80
2012,05,26,03,36,8.70
2012,05,26,03,37,8.70
2012,05,26,03,38,8.70
2012,05,26,03,39,8.70
2012,05,26,03,40,8.80
2012,05,26,03,41,8.70
2012,05,26,03,42,8.70
2012,05,26,03,43,8.70
2012,05,26,03,44,8.70
2012,05,26,03,45,8.70
2012,05,26,03,46,8.70
2012,05,26,03,47,8.70
2012,05,26,03,48,8.70
2012,05,26,03,49,8.70
2012,05,26,03,50,8.70
2012,05,26,03,51,8.60
2012,05,26,03,52,8.60
2012,05,26,03,53,8.60
2012,05,26,03,54,8.60
2012,05,26,03,55,8.60
2012,05,26,03,56,8.60
2012,05,26,03,57,8.60
2012,05,26,03,58,8.60
2012,05,26,03,59,8.60
2012,05,26,04,00,8.60
2012,05,26,04,01,8.60
2012,05,26,04,02,8.60
2012,05,26,04,03,8.60
2012,05,26,04,04,8.60
2012,05,26,04,05,8.60
2012,05,26,04,06,8.60
2012,05,26,04,07,8.60
2012,05,26,04,08,8.50
2012,05,26,04,09,8.50
2012,05,26,04,10,8.50
2012,05,26,04,11,8.50
2012,05,26,04,12,8.50
2012,05,26,04,13,8.50
2012,05,26,04,14,8.50
2012,05,26,04,15,8.50
2012,05,26,04,16,8.50
2012,05,26,04,17,8.60
2012,05,26,04,18,8.60
2012,05,26,04,19,8.70
2012,05,26,04,20,8.60
2012,05,26,04,21,8.60
2012,05,26,04,22,8.60
2012,05,26,04,23,8.60
2012,05,26,04,24,8.60
2012,05,26,04,25,8.50
2012,05,26,04,26,8.50
2012,05,26,04,27,8.60
2012,05,26,04,28,8.60
2012,05,26,04,29,8.60
2012,05,26,04,30,8.60
2012,05,26,04,31,8.60
2012,05,26,04,32,8.60
2012,05,26,04,33,8.60
2012,05,26,04,34,8.60
2012,05,26,04,35,8.50
2012,05,26,04,36,8.50
2012,05,26,04,37,8.40
2012,05,26,04,38,8.40
2012,05,26,04,39,8.30
2012,05,26,04,40,8.30
2012,05,26,04,41,8.30
2012,05,26,04,42,8.30
2012,05,26,04,43,8.30
2012,05,26,04,44,8.20
2012,05,26,04,45,8.20
2012,05,26,04,46,8.20
2012,05,26,04,47,8.20
2012,05,26,04,48,8.20
2012,05,26,04,49,8.20
2012,05,26,04,50,8.20
2012,05,26,04,51,8.20
2012,05,26,04,52,8.20
2012,05,26,04,53,8.20
2012,05,26,04,54,8.20
2012,05,26,04,55,8.20
2012,05,26,04,56,8.20
2012,05,26,04,57,8.20
2012,05,26,04,58,8.20
2012,05,26,04,59,8.20
2012,05,26,05,00,8.20
2012,05,26,05,01,8.20
2012,05,26,05,02,8.20
2012,05,26,05,03,8.10
2012,05,26,05,04,8.10
2012,05,26,05,05,8.10
2012,05,26,05,06,8.10
2012,05,26,05,07,8.10
2012,05,26,05,08,8.10
2012,05,26,05,09,8.10
2012,05,26,05,10,8.10
2012,05,26,05,11,8.10
2012,05,26,05,12,8.10
2012,05,26,05,13,8.10
2012,05,26,05,14,8.00
2012,05,26,05,15,8.00
2012,05,26,05,16,8.00
2012,05,26,05,17,8.00
2012,05,26,05,18,7.90
2012,05,26,05,19,7.90
2012,05,26,05,20,7.90
2012,05,26,05,21,7.90
2012,05,26,05,22,7.90
2012,05,26,05,23,7.80
2012,05,26,05,24,7.80
2012,05,26,05,25,7.80
2012,05,26,05,26,7.80
2012,05,26,05,27,7.80
2012,05,26,05,28,7.80
2012,05,26,05,29,7.80
2012,05,26,05,30,7.80
2012,05,26,05,31,7.80
2012,05,26,05,32,7.90
2012,05,26,05,33,7.90
2012,05,26,05,34,8.00
2012,05,26,05,35,8.20
2012,05,26,05,36,8.30
2012,05,26,05,37,8.40
2012,05,26,05,38,8.50
2012,05,26,05,39,8.50
2012,05,26,05,40,8.60
2012,05,26,05,41,8.70
2012,05,26,05,42,8.70
2012,05,26,05,43,8.70
2012,05,26,05,44,8.80
2012,05,26,05,45,8.80
2012,05,26,05,46,8.80
2012,05,26,05,47,8.80
2012,05,26,05,48,8.80
2012,05,26,05,49,8.70
2012,05,26,05,50,8.70
2012,05,26,05,51,8.70
2012,05,26,05,52,8.60
2012,05,26,05,53,8.60
2012,05,26,05,54,8.50
2012,05,26,05,55,8.50
2012,05,26,05,56,8.60
2012,05,26,05,57,8.60
2012,05,26,05,58,8.70
2012,05,26,05,59,8.70
2012,05,26,06,00,8.80
2012,05,26,06,01,8.80
2012,05,26,06,02,8.80
2012,05,26,06,03,8.90
2012,05,26,06,04,8.90
2012,05,26,06,05,8.90
2012,05,26,06,06,8.90
2012,05,26,06,07,9.00
2012,05,26,06,08,9.00
2012,05,26,06,09,9.10
2012,05,26,06,10,9.20
2012,05,26,06,11,9.30
2012,05,26,06,12,9.40
2012,05,26,06,13,9.50
2012,05,26,06,14,9.60
2012,05,26,06,15,9.70
2012,05,26,06,16,9.80
2012,05,26,06,17,9.90
2012,05,26,06,18,10.00
2012,05,26,06,19,10.10
2012,05,26,06,20,10.20
2012,05,26,06,21,10.20
2012,05,26,06,22,10.30
2012,05,26,06,23,10.30
2012,05,26,06,24,10.40
2012,05,26,06,25,10.40
2012,05,26,06,26,10.50
2012,05,26,06,27,10.60
2012,05,26,06,28,10.60
2012,05,26,06,29,10.60
2012,05,26,06,30,10.70
2012,05,26,06,31,10.70
2012,05,26,06,32,10.80
2012,05,26,06,33,10.80
2012,05,26,06,34,10.80
2012,05,26,06,35,10.80
2012,05,26,06,36,10.80
2012,05,26,06,37,10.80
2012,05,26,06,38,10.90
2012,05,26,06,39,10.90
2012,05,26,06,40,10.90
2012,05,26,06,41,11.00
2012,05,26,06,42,11.00
2012,05,26,06,43,11.10
2012,05,26,06,44,11.10
2012,05,26,06,45,11.20
2012,05,26,06,46,11.20
2012,05,26,06,47,11.20
2012,05,26,06,48,11.30
2012,05,26,06,49,11.30
2012,05,26,06,50,11.40
2012,05,26,06,51,11.40
2012,05,26,06,52,11.50
2012,05,26,06,53,11.50
2012,05,26,06,54,11.60
2012,05,26,06,55,11.60
2012,05,26,06,56,11.70
2012,05,26,06,57,11.70
2012,05,26,06,58,11.70
2012,05,26,06,59,11.80
2012,05,26,07,00,11.80
2012,05,26,07,01,11.80
2012,05,26,07,02,11.90
2012,05,26,07,03,11.90
2012,05,26,07,04,12.00
2012,05,26,07,05,12.00
2012,05,26,07,06,12.10
2012,05,26,07,07,12.10
2012,05,26,07,08,12.20
2012,05,26,07,09,12.20
2012,05,26,07,10,12.30
2012,05,26,07,11,12.30
2012,05,26,07,12,12.40
2012,05,26,07,13,12.50
2012,05,26,07,14,12.60
2012,05,26,07,15,12.60
2012,05,26,07,16,12.70
2012,05,26,07,17,12.70
2012,05,26,07,18,12.80
2012,05,26,07,19,12.80
2012,05,26,07,20,12.90
2012,05,26,07,21,12.90
2012,05,26,07,22,13.10
2012,05,26,07,23,13.20
2012,05,26,07,24,13.30
2012,05,26,07,25,13.40
2012,05,26,07,26,13.60
2012,05,26,07,27,13.70
2012,05,26,07,28,13.90
2012,05,26,07,29,14.10
2012,05,26,07,30,14.30
2012,05,26,07,31,14.50
2012,05,26,07,32,14.70
2012,05,26,07,33,14.80
2012,05,26,07,34,15.00
2012,05,26,07,35,15.00
2012,05,26,07,36,15.00
2012,05,26,07,37,15.00
2012,05,26,07,38,15.00
2012,05,26,07,39,15.00
2012,05,26,07,40,15.00
2012,05,26,07,41,15.00
2012,05,26,07,42,15.00
2012,05,26,07,43,15.00
2012,05,26,07,44,15.10
2012,05,26,07,45,15.00
2012,05,26,07,46,15.00
2012,05,26,07,47,15.00
2012,05,26,07,48,15.00
2012,05,26,07,49,15.00
2012,05,26,07,50,15.10
2012,05,26,07,51,15.20
2012,05,26,07,52,15.20
2012,05,26,07,53,15.30
2012,05,26,07,54,15.30
2012,05,26,07,55,15.40
2012,05,26,07,56,15.40
2012,05,26,07,57,15.40
2012,05,26,07,58,15.40
2012,05,26,07,59,15.40
2012,05,26,08,00,15.30
2012,05,26,08,01,15.30
2012,05,26,08,02,15.30
2012,05,26,08,03,15.30
2012,05,26,08,04,15.20
2012,05,26,08,05,15.20
2012,05,26,08,06,15.00
2012,05,26,08,07,15.00
2012,05,26,08,08,15.00
2012,05,26,08,09,15.00
2012,05,26,08,10,15.00
2012,05,26,08,11,15.00
2012,05,26,08,12,15.00
2012,05,26,08,13,14.90
2012,05,26,08,14,14.90
2012,05,26,08,15,14.80
2012,05,26,08,16,14.80
2012,05,26,08,17,14.80
2012,05,26,08,18,14.80
2012,05,26,08,19,14.70
2012,05,26,08,20,14.70
2012,05,26,08,21,14.80
2012,05,26,08,22,14.80
2012,05,26,08,23,14.80
2012,05,26,08,24,14.80
2012,05,26,08,25,14.90
2012,05,26,08,26,14.90
2012,05,26,08,27,14.90
2012,05,26,08,28,15.00
2012,05,26,08,29,15.00
2012,05,26,08,30,15.00
2012,05,26,08,31,15.00
2012,05,26,08,32,15.00
2012,05,26,08,33,15.00
2012,05,26,08,34,15.00
2012,05,26,08,35,15.00
2012,05,26,08,36,15.00
2012,05,26,08,37,15.00
2012,05,26,08,38,15.00
2012,05,26,08,39,15.00
2012,05,26,08,40,15.00
2012,05,26,08,41,15.10
2012,05,26,08,42,15.20
2012,05,26,08,43,15.20
2012,05,26,08,44,15.20
2012,05,26,08,45,15.20
2012,05,26,08,46,15.20
2012,05,26,08,47,15.20
2012,05,26,08,48,15.20
2012,05,26,08,49,15.30
2012,05,26,08,50,15.30
2012,05,26,08,51,15.30
2012,05,26,08,52,15.30
2012,05,26,08,53,15.30
2012,05,26,08,54,15.30
2012,05,26,08,55,15.40
2012,05,26,08,56,15.50
2012,05,26,08,57,15.60
2012,05,26,08,58,15.70
2012,05,26,08,59,15.80
2012,05,26,09,00,16.00
2012,05,26,09,01,16.20
2012,05,26,09,02,16.40
2012,05,26,09,03,16.60
2012,05,26,09,04,16.60
2012,05,26,09,05,16.70
2012,05,26,09,06,16.60
2012,05,26,09,07,16.50
2012,05,26,09,08,16.50
2012,05,26,09,09,16.50
2012,05,26,09,10,16.50
2012,05,26,09,11,16.60
2012,05,26,09,12,16.60
2012,05,26,09,13,16.50
2012,05,26,09,14,16.40
2012,05,26,09,15,16.40
2012,05,26,09,16,16.40
2012,05,26,09,17,16.40
2012,05,26,09,18,16.50
2012,05,26,09,19,16.50
2012,05,26,09,20,16.70
2012,05,26,09,21,16.80
2012,05,26,09,22,16.80
2012,05,26,09,23,16.80
2012,05,26,09,24,16.80
2012,05,26,09,25,16.80
2012,05,26,09,26,16.80
2012,05,26,09,27,16.80
2012,05,26,09,28,16.70
2012,05,26,09,29,16.70
2012,05,26,09,30,16.70
2012,05,26,09,31,16.70
2012,05,26,09,32,16.70
2012,05,26,09,33,16.60
2012,05,26,09,34,16.60
2012,05,26,09,35,16.60
2012,05,26,09,36,16.60
2012,05,26,09,37,16.60
2012,05,26,09,38,16.70
2012,05,26,09,39,16.80
2012,05,26,09,40,17.00
2012,05,26,09,41,17.10
2012,05,26,09,42,17.20
2012,05,26,09,43,17.30
2012,05,26,09,44,17.40
2012,05,26,09,45,17.50
2012,05,26,09,46,17.50
2012,05,26,09,47,17.60
2012,05,26,09,48,17.70
2012,05,26,09,49,17.70
2012,05,26,09,50,17.70
2012,05,26,09,51,17.70
2012,05,26,09,52,17.70
2012,05,26,09,53,17.70
2012,05,26,09,54,17.70
2012,05,26,09,55,17.60
2012,05,26,09,56,17.50
2012,05,26,09,57,17.40
2012,05,26,09,58,17.40
2012,05,26,09,59,17.30
2012,05,26,10,00,17.40
2012,05,26,10,01,17.40
2012,05,26,10,02,17.50
2012,05,26,10,03,17.60
2012,05,26,10,04,17.60
2012,05,26,10,05,17.70
2012,05,26,10,06,17.70
2012,05,26,10,07,17.70
2012,05,26,10,08,17.80
2012,05,26,10,09,17.90
2012,05,26,10,10,17.90
2012,05,26,10,11,17.90
2012,05,26,10,12,18.00
2012,05,26,10,13,18.10
2012,05,26,10,14,18.10
2012,05,26,10,15,18.10
2012,05,26,10,16,18.20
2012,05,26,10,17,18.30
2012,05,26,10,18,18.30
2012,05,26,10,19,18.30
2012,05,26,10,20,18.30
2012,05,26,10,21,18.40
2012,05,26,10,22,18.30
2012,05,26,10,23,18.20
2012,05,26,10,24,18.20
2012,05,26,10,25,18.10
2012,05,26,10,26,18.00
2012,05,26,10,27,17.90
2012,05,26,10,28,17.80
2012,05,26,10,29,17.90
2012,05,26,10,30,18.00
2012,05,26,10,31,18.20
2012,05,26,10,32,18.30
2012,05,26,10,33,18.50
2012,05,26,10,34,18.50
2012,05,26,10,35,18.50
2012,05,26,10,36,18.30
2012,05,26,10,37,18.20
2012,05,26,10,38,18.00
2012,05,26,10,39,17.90
2012,05,26,10,40,17.90
2012,05,26,10,41,17.80
2012,05,26,10,42,17.80
2012,05,26,10,43,17.70
2012,05,26,10,44,17.70
2012,05,26,10,45,17.60
2012,05,26,10,46,17.60
2012,05,26,10,47,17.60
2012,05,26,10,48,17.60
2012,05,26,10,49,17.80
2012,05,26,10,50,17.90
2012,05,26,10,51,18.10
2012,05,26,10,52,18.20
2012,05,26,10,53,18.20
2012,05,26,10,54,18.20
2012,05,26,10,55,18.10
2012,05,26,10,56,18.10
2012,05,26,10,57,18.30
2012,05,26,10,58,18.30
2012,05,26,10,59,18.50
2012,05,26,11,00,18.60
2012,05,26,11,01,18.60
2012,05,26,11,02,18.60
2012,05,26,11,03,18.50
2012,05,26,11,04,18.40
2012,05,26,11,05,18.40
2012,05,26,11,06,18.40
2012,05,26,11,07,18.50
2012,05,26,11,08,18.40
2012,05,26,11,09,18.30
2012,05,26,11,10,18.30
2012,05,26,11,11,18.40
2012,05,26,11,12,18.60
2012,05,26,11,13,18.70
2012,05,26,11,14,18.90
2012,05,26,11,15,19.00
2012,05,26,11,16,19.20
2012,05,26,11,17,19.50
2012,05,26,11,18,19.70
2012,05,26,11,19,19.80
2012,05,26,11,20,19.70
2012,05,26,11,21,19.60
2012,05,26,11,22,19.60
2012,05,26,11,23,19.70
2012,05,26,11,24,19.60
2012,05,26,11,25,19.50
2012,05,26,11,26,19.30
2012,05,26,11,27,19.20
2012,05,26,11,28,19.20
2012,05,26,11,29,19.20
2012,05,26,11,30,19.20
2012,05,26,11,31,19.20
2012,05,26,11,32,19.20
2012,05,26,11,33,19.10
2012,05,26,11,34,19.20
2012,05,26,11,35,19.30
2012,05,26,11,36,19.30
2012,05,26,11,37,19.30
2012,05,26,11,38,19.40
2012,05,26,11,39,19.60
2012,05,26,11,40,19.70
2012,05,26,11,41,19.80
2012,05,26,11,42,19.80
2012,05,26,11,43,19.80
2012,05,26,11,44,19.80
2012,05,26,11,45,19.80
2012,05,26,11,46,19.70
2012,05,26,11,47,19.70
2012,05,26,11,48,19.80
2012,05,26,11,49,19.80
2012,05,26,11,50,19.80
2012,05,26,11,51,19.90
2012,05,26,11,52,19.90
2012,05,26,11,53,20.00
2012,05,26,11,54,20.00
2012,05,26,11,55,20.00
2012,05,26,11,56,19.90
2012,05,26,11,57,19.90
2012,05,26,11,58,19.90
2012,05,26,11,59,19.90
2012,05,26,12,00,19.90
2012,05,26,12,01,20.00
2012,05,26,12,02,20.10
2012,05,26,12,03,20.10
2012,05,26,12,04,20.10
2012,05,26,12,05,20.00
2012,05,26,12,06,19.90
2012,05,26,12,07,19.90
2012,05,26,12,08,20.00
2012,05,26,12,09,20.10
2012,05,26,12,10,20.10
2012,05,26,12,11,20.20
2012,05,26,12,12,20.20
2012,05,26,12,13,20.30
2012,05,26,12,14,20.50
2012,05,26,12,15,20.70
2012,05,26,12,16,20.80
2012,05,26,12,17,20.80
2012,05,26,12,18,20.90
2012,05,26,12,19,20.90
2012,05,26,12,20,20.90
2012,05,26,12,21,21.00
2012,05,26,12,22,21.00
2012,05,26,12,23,21.10
2012,05,26,12,24,21.30
2012,05,26,12,25,21.20
2012,05,26,12,26,21.20
2012,05,26,12,27,21.20
2012,05,26,12,28,21.10
2012,05,26,12,29,21.10
2012,05,26,12,30,21.10
2012,05,26,12,31,21.00
2012,05,26,12,32,21.00
2012,05,26,12,33,21.10
2012,05,26,12,34,21.30
2012,05,26,12,35,21.40
2012,05,26,12,36,21.40
2012,05,26,12,37,21.50
2012,05,26,12,38,21.50
2012,05,26,12,39,21.50
2012,05,26,12,40,21.60
2012,05,26,12,41,21.60
2012,05,26,12,42,21.50
2012,05,26,12,43,21.50
2012,05,26,12,44,21.40
2012,05,26,12,45,21.40
2012,05,26,12,46,21.40
2012,05,26,12,47,21.30
2012,05,26,12,48,21.30
2012,05,26,12,49,21.40
2012,05,26,12,50,21.40
2012,05,26,12,51,21.50
2012,05,26,12,52,21.50
2012,05,26,12,53,21.50
2012,05,26,12,54,21.50
2012,05,26,12,55,21.40
2012,05,26,12,56,21.40
2012,05,26,12,57,21.30
2012,05,26,12,58,21.30
2012,05,26,12,59,21.30
2012,05,26,13,00,21.40
2012,05,26,13,01,21.40
2012,05,26,13,02,21.40
2012,05,26,13,03,21.40
2012,05,26,13,04,21.50
2012,05,26,13,05,21.50
2012,05,26,13,06,21.60
2012,05,26,13,07,21.60
2012,05,26,13,08,21.70
2012,05,26,13,09,21.80
2012,05,26,13,10,21.70
2012,05,26,13,11,21.70
2012,05,26,13,12,21.60
2012,05,26,13,13,21.50
2012,05,26,13,14,21.50
2012,05,26,13,15,21.50
2012,05,26,13,16,21.60
2012,05,26,13,17,21.60
2012,05,26,13,18,21.60
2012,05,26,13,19,21.60
2012,05,26,13,20,21.60
2012,05,26,13,21,21.70
2012,05,26,13,22,21.70
2012,05,26,13,23,21.80
2012,05,26,13,24,21.80
2012,05,26,13,25,21.80
2012,05,26,13,26,21.80
2012,05,26,13,27,21.80
2012,05,26,13,28,21.90
2012,05,26,13,29,22.00
2012,05,26,13,30,22.20
2012,05,26,13,31,22.30
2012,05,26,13,32,22.30
2012,05,26,13,33,22.30
2012,05,26,13,34,22.40
2012,05,26,13,35,22.40
2012,05,26,13,36,22.50
2012,05,26,13,37,22.50
2012,05,26,13,38,22.50
2012,05,26,13,39,22.40
2012,05,26,13,40,22.30
2012,05,26,13,41,22.30
2012,05,26,13,42,22.30
2012,05,26,13,43,22.20
2012,05,26,13,44,22.30
2012,05,26,13,45,22.30
2012,05,26,13,46,22.40
2012,05,26,13,47,22.50
2012,05,26,13,48,22.50
2012,05,26,13,49,22.50
2012,05,26,13,50,22.50
2012,05,26,13,51,22.60
2012,05,26,13,52,22.70
2012,05,26,13,53,22.70
2012,05,26,13,54,22.70
2012,05,26,13,55,22.70
2012,05,26,13,56,22.70
2012,05,26,13,57,22.70
2012,05,26,13,58,22.80
2012,05,26,13,59,22.90
2012,05,26,14,00,23.00
2012,05,26,14,01,23.00
2012,05,26,14,02,23.00
2012,05,26,14,03,23.00
2012,05,26,14,04,22.90
2012,05,26,14,05,22.90
2012,05,26,14,06,22.90
2012,05,26,14,07,22.90
2012,05,26,14,08,23.00
2012,05,26,14,09,23.10
2012,05,26,14,10,23.30
2012,05,26,14,11,23.30
2012,05,26,14,12,23.40
2012,05,26,14,13,23.50
2012,05,26,14,14,23.50
2012,05,26,14,15,23.60
2012,05,26,14,16,23.60
2012,05,26,14,17,23.60
2012,05,26,14,18,23.60
2012,05,26,14,19,23.60
2012,05,26,14,20,23.60
2012,05,26,14,21,23.60
2012,05,26,14,22,23.60
2012,05,26,14,23,23.50
2012,05,26,14,24,23.50
2012,05,26,14,25,23.50
2012,05,26,14,26,23.60
2012,05,26,14,27,23.60
2012,05,26,14,28,23.70
2012,05,26,14,29,23.80
2012,05,26,14,30,23.80
2012,05,26,14,31,23.80
2012,05,26,14,32,23.90
2012,05,26,14,33,23.90
2012,05,26,14,34,24.10
2012,05,26,14,35,24.10
2012,05,26,14,36,24.20
2012,05,26,14,37,24.30
2012,05,26,14,38,24.30
2012,05,26,14,39,24.30
2012,05,26,14,40,24.40
2012,05,26,14,41,24.50
2012,05,26,14,42,24.70
2012,05,26,14,43,24.80
2012,05,26,14,44,24.90
2012,05,26,14,45,25.00
2012,05,26,14,46,25.10
2012,05,26,14,47,25.10
2012,05,26,14,48,25.20
2012,05,26,14,49,25.20
2012,05,26,14,50,25.20
2012,05,26,14,51,25.20
2012,05,26,14,52,25.20
2012,05,26,14,53,25.10
2012,05,26,14,54,25.00
2012,05,26,14,55,25.00
2012,05,26,14,56,24.90
2012,05,26,14,57,24.80
2012,05,26,14,58,24.80
2012,05,26,14,59,24.70
2012,05,26,15,00,24.60
2012,05,26,15,01,24.60
2012,05,26,15,02,24.60
2012,05,26,15,03,24.70
2012,05,26,15,04,24.70
2012,05,26,15,05,24.70
2012,05,26,15,06,24.70
2012,05,26,15,07,24.80
2012,05,26,15,08,24.80
2012,05,26,15,09,24.70
2012,05,26,15,10,24.70
2012,05,26,15,11,24.60
2012,05,26,15,12,24.40
2012,05,26,15,13,24.40
2012,05,26,15,14,24.50
2012,05,26,15,15,24.60
2012,05,26,15,16,24.60
2012,05,26,15,17,24.60
2012,05,26,15,18,24.60
2012,05,26,15,19,24.60
2012,05,26,15,20,24.50
2012,05,26,15,21,24.60
2012,05,26,15,22,24.50
2012,05,26,15,23,24.40
2012,05,26,15,24,24.50
2012,05,26,15,25,24.60
2012,05,26,15,26,24.70
2012,05,26,15,27,24.70
2012,05,26,15,28,24.80
2012,05,26,15,29,24.80
2012,05,26,15,30,24.80
2012,05,26,15,31,24.80
2012,05,26,15,32,24.80
2012,05,26,15,33,24.80
2012,05,26,15,34,24.80
2012,05,26,15,35,24.80
2012,05,26,15,36,24.90
2012,05,26,15,37,25.00
2012,05,26,15,38,25.20
2012,05,26,15,39,25.20
2012,05,26,15,40,25.30
2012,05,26,15,41,25.30
2012,05,26,15,42,25.30
2012,05,26,15,43,25.30
2012,05,26,15,44,25.40
2012,05,26,15,45,25.30
2012,05,26,15,46,25.20
2012,05,26,15,47,25.10
2012,05,26,15,48,25.10
2012,05,26,15,49,25.20
2012,05,26,15,50,25.20
2012,05,26,15,51,25.30
2012,05,26,15,52,25.20
2012,05,26,15,53,25.20
2012,05,26,15,54,25.30
2012,05,26,15,55,25.30
2012,05,26,15,56,25.30
2012,05,26,15,57,25.30
2012,05,26,15,58,25.30
2012,05,26,15,59,25.30
2012,05,26,16,00,25.30
2012,05,26,16,01,25.30
2012,05,26,16,02,25.30
2012,05,26,16,03,25.30
2012,05,26,16,04,25.30
2012,05,26,16,05,25.30
2012,05,26,16,06,25.40
2012,05,26,16,07,25.40
2012,05,26,16,08,25.40
2012,05,26,16,09,25.50
2012,05,26,16,10,25.50
2012,05,26,16,11,25.50
2012,05,26,16,12,25.40
2012,05,26,16,13,25.30
2012,05,26,16,14,25.20
2012,05,26,16,15,25.30
2012,05,26,16,16,25.30
2012,05,26,16,17,25.40
2012,05,26,16,18,25.50
2012,05,26,16,19,25.50
2012,05,26,16,20,25.50
2012,05,26,16,21,25.40
2012,05,26,16,22,25.20
2012,05,26,16,23,25.10
2012,05,26,16,24,25.10
2012,05,26,16,25,25.10
2012,05,26,16,26,25.10
2012,05,26,16,27,25.00
2012,05,26,16,28,24.80
2012,05,26,16,29,24.80
2012,05,26,16,30,24.90
2012,05,26,16,31,25.00
2012,05,26,16,32,24.90
2012,05,26,16,33,24.90
2012,05,26,16,34,25.00
2012,05,26,16,35,25.10
2012,05,26,16,36,25.20
2012,05,26,16,37,25.20
2012,05,26,16,38,25.20
2012,05,26,16,39,25.20
2012,05,26,16,40,25.10
2012,05,26,16,41,25.10
2012,05,26,16,42,25.10
2012,05,26,16,43,25.20
2012,05,26,16,44,25.20
2012,05,26,16,45,25.20
2012,05,26,16,46,25.20
2012,05,26,16,47,25.10
2012,05,26,16,48,25.20
2012,05,26,16,49,25.30
2012,05,26,16,50,25.40
2012,05,26,16,51,25.50
2012,05,26,16,52,25.60
2012,05,26,16,53,25.60
2012,05,26,16,54,25.60
2012,05,26,16,55,25.50
2012,05,26,16,56,25.30
2012,05,26,16,57,25.20
2012,05,26,16,58,25.10
2012,05,26,16,59,25.00
2012,05,26,17,00,25.00
2012,05,26,17,01,25.00
2012,05,26,17,02,25.00
2012,05,26,17,03,24.90
2012,05,26,17,04,24.80
2012,05,26,17,05,24.90
2012,05,26,17,06,25.00
2012,05,26,17,07,25.20
2012,05,26,17,08,25.20
2012,05,26,17,09,25.20
2012,05,26,17,10,25.10
2012,05,26,17,11,25.00
2012,05,26,17,12,25.00
2012,05,26,17,13,25.10
2012,05,26,17,14,25.20
2012,05,26,17,15,25.20
2012,05,26,17,16,25.20
2012,05,26,17,17,25.20
2012,05,26,17,18,25.20
2012,05,26,17,19,25.20
2012,05,26,17,20,25.30
2012,05,26,17,21,25.30
2012,05,26,17,22,25.40
2012,05,26,17,23,25.50
2012,05,26,17,24,25.60
2012,05,26,17,25,25.50
2012,05,26,17,26,25.40
2012,05,26,17,27,25.30
2012,05,26,17,28,25.40